SITRO-AIS-23

operational
NORAD ID: 61742 Int'l Des: 2024-199 Owner: SITRO Country: RU
LEOCIRCULARRETROGRADE

SITRO-AIS-23について

説明を読み込み中...

リアルタイム位置

3D地球を読み込み中...

次回通過

高度履歴

Altitude vs Time

uPlot chart will show altitude changes over time

軌道要素

1 61742U 24199H 26062.11854320 .00004232 00000-0 38749-3 0 9990
2 61742 97.3330 267.0028 0014068 64.8316 295.4363 14.95364333115919
Epoch: Mar 3, 2026 • Age: 17 hours

現在のステータス

高度 590.0 km
速度 7.56 km/s
衛星直下点 -24.41°S, 148.44°W
打ち上げ日 Nov 4, 2024
運用期間 1.3 years
タイプ other

技術仕様

分類 Payload
質量 3.00 kg
乾燥質量 3.00 kg
総質量 3.00 kg
長さ 0.30 m
直径 0.10 m
スパン 0.30 m
形状 Box
製造者 SPUT
バスタイプ Cubesat 3U
フェーズステータス In Orbit
所有者/国 SITRO/RU

大規模コンステレーション

Loading constellations...